SUNNYSIDE Weather Reports


time (UTC)temp
F
wind
direction
speed
knots
gust
knots
rain 1hr
in
rain 24hr
in
rain mn
in
humidity
%
barometer
mb
20260904172045 72 74 2.6 7.0 0.00 0.01 0.00 59 985.1
20260904171547 71 19 0.9 7.8 0.00 0.01 0.00 61 985.2
20260904171042 70 360 2.6 7.0 0.00 0.01 0.00 63 985.2
20260904170541 70 13 3.5 7.8 0.00 0.01 0.00 64 985.2
20260904170041 69 74 3.5 7.8 0.00 0.01 0.00 66 985.3
20260904165540 68 22 0.9 7.8 0.00 0.01 0.00 68 985.3
20260904165036 67 22 0.9 8.7 0.00 0.01 0.00 69 985.3
20260904164534 67 355 2.6 8.7 0.00 0.01 0.00 70 985.4
20260904164033 66 314 2.6 5.2 0.00 0.01 0.00 70 985.6
20260904163532 66 336 1.7 4.3 0.00 0.01 0.00 70 985.5
20260904163030 65 349 0.9 4.3 0.00 0.01 0.00 71 985.5
20260904162529 65 22 2.6 7.0 0.00 0.01 0.00 70 985.5
20260904162027 64 338 3.5 7.0 0.00 0.01 0.00 71 985.7
20260904161526 64 347 2.6 5.2 0.00 0.01 0.00 71 985.5
20260904161028 64 22 2.6 5.2 0.00 0.01 0.00 70 985.4
20260904160525 63 355 0.9 7.8 0.00 0.01 0.00 71 985.3
20260904160021 63 29 3.5 7.8 0.00 0.01 0.00 71 985.3
20260904155520 63 342 3.5 8.7 0.00 0.01 0.00 70 985.2
20260904155018 63 360 3.5 8.7 0.00 0.01 0.00 71 985.2
20260904154516 62 327 4.3 7.8 0.00 0.01 0.00 71 985.4
20260904154016 62 360 4.3 7.8 0.00 0.01 0.00 71 985.4
20260904153517 62 9 3.5 7.0 0.00 0.01 0.00 71 985.4
20260904153016 62 332 4.3 7.0 0.00 0.01 0.00 71 985.4
20260904152514 62 341 1.7 5.2 0.00 0.01 0.00 71 985.3
20260904152014 61 339 2.6 5.2 0.00 0.01 0.00 71 985.4
20260904151514 61 345 1.7 5.2 0.00 0.01 0.00 71 985.4
20260904151013 61 340 2.6 5.2 0.00 0.01 0.00 71 985.3
20260904150512 61 360 3.5 7.0 0.00 0.01 0.00 71 985.3
20260904150013 61 345 3.5 7.0 0.00 0.01 0.00 71 985.2
20260904145510 60 347 3.5 5.2 0.00 0.01 0.00 71 985.2
20260904145009 60 300 3.5 5.2 0.00 0.01 0.00 71 985.2
20260904144509 60 306 2.6 5.2 0.00 0.01 0.00 71 985.2
20260904144008 60 360 2.6 5.2 0.00 0.01 0.00 71 985.2
20260904143508 59 351 2.6 7.0 0.00 0.01 0.00 71 985.2
20260904143008 59 344 2.6 7.0 0.00 0.01 0.00 71 985.3
20260904142508 59 360 3.5 5.2 0.00 0.01 0.00 71 985.4
20260904142011 59 274 1.7 5.2 0.00 0.01 0.00 71 985.4
20260904141507 59 281 2.6 4.3 0.00 0.01 0.00 71 985.3
20260904141006 58 296 2.6 4.3 0.00 0.01 0.00 71 985.3
20260904140506 58 303 0.9 3.5 0.00 0.01 0.00 71 985.3
20260904140007 58 360 0.9 4.3 0.00 0.01 0.00 71 985.3
20260904135507 58 331 1.7 4.3 0.00 0.01 0.00 71 985.3
20260904135005 57 360 1.7 5.2 0.00 0.01 0.00 71 985.3
20260904134508 57 277 2.6 5.2 0.00 0.01 0.00 71 985.2
20260904134006 57 298 1.7 4.3 0.00 0.01 0.00 71 985.1
20260904133507 57 360 1.7 3.5 0.00 0.01 0.00 71 985.2
20260904133004 57 306 1.7 3.5 0.00 0.01 0.00 71 985.1
20260904132504 56 307 1.7 5.2 0.00 0.01 0.00 71 985.0
20260904132003 56 283 2.6 5.2 0.00 0.01 0.00 71 985.0
20260904131504 56 282 0.9 3.5 0.00 0.01 0.00 71 985.0
20260904131004 56 300 1.7 3.5 0.00 0.01 0.00 71 985.0
20260904130507 56 287 0.9 3.5 0.00 0.01 0.00 71 985.0
20260904130103 56 360 1.7 2.6 0.00 0.01 0.00 71 985.1
20260904125502 55 267 1.7 2.6 0.00 0.01 0.00 71 985.0
20260904125002 55 294 0.9 3.5 0.00 0.01 0.00 71 984.9
20260904124613 55 292 0.9 3.5 0.00 0.01 0.00 71 984.8
20260904124059 55 297 0.9 3.5 0.00 0.01 0.00 71 984.8
20260904123603 55 288 0.9 2.6 0.00 0.01 0.00 71 984.7
20260904123103 55 287 0.0 0.0 0.00 0.01 0.00 71 984.7
20260904122559 55 286 0.0 0.0 0.00 0.01 0.00 71 984.7
20260904122059 55 286 0.0 0.0 0.00 0.01 0.00 71 984.6
20260904121558 55 275 0.0 0.0 0.00 0.01 0.00 71 984.6
20260904121103 55 275 0.0 0.9 0.00 0.01 0.00 71 984.6
20260904120556 55 275 0.0 1.7 0.00 0.01 0.00 71 984.4
20260904120056 55 275 0.0 2.6 0.00 0.01 0.00 71 984.4
20260904115600 55 275 0.9 2.6 0.00 0.01 0.00 71 984.3
20260904115059 55 284 0.0 1.7 0.00 0.01 0.00 71 984.2
20260904114601 55 284 0.0 2.6 0.00 0.01 0.00 71 984.3
20260904114055 55 284 0.9 2.6 0.00 0.01 0.00 71 984.3
20260904113554 55 284 1.7 3.5 0.00 0.01 0.00 71 984.2
20260904113053 55 268 1.7 4.3 0.00 0.01 0.00 71 984.2
20260904112552 55 268 2.6 4.3 0.00 0.01 0.00 71 983.9
20260904112052 55 254 2.6 5.2 0.00 0.01 0.00 71 983.8
20260904111551 55 248 1.7 4.3 0.00 0.01 0.00 71 983.7
20260904111052 55 254 1.7 4.3 0.00 0.01 0.00 71 983.7
20260904110550 55 261 1.7 3.5 0.00 0.01 0.00 71 983.7
20260904110050 55 254 1.7 3.5 0.00 0.01 0.00 71 983.6
20260904105549 54 244 0.9 2.6 0.00 0.01 0.00 71 983.6
20260904105050 54 234 0.9 2.6 0.00 0.01 0.00 71 983.6
20260904104550 55 234 1.7 3.5 0.00 0.01 0.00 71 983.6
20260904104049 54 235 2.6 3.5 0.00 0.01 0.00 71 983.6
20260904103548 54 277 0.9 2.6 0.00 0.01 0.00 70 983.6
20260904103049 55 277 1.7 2.6 0.00 0.01 0.00 71 983.6
20260904102552 55 277 0.0 1.7 0.00 0.01 0.00 71 983.4
20260904102050 54 277 0.9 1.7 0.00 0.01 0.00 70 983.3
20260904101547 55 277 0.0 1.7 0.00 0.01 0.00 71 983.2
20260904101046 54 277 0.9 2.6 0.00 0.01 0.00 70 983.4
20260904100546 54 277 1.7 2.6 0.00 0.01 0.00 70 983.3
20260904100056 55 277 0.0 1.7 0.00 0.01 0.00 71 983.1
20260904095545 55 277 0.0 1.7 0.00 0.01 0.00 71 983.1
20260904095044 55 277 0.9 1.7 0.00 0.01 0.00 70 983.1
20260904094554 55 277 0.9 1.7 0.00 0.01 0.00 70 983.0
20260904094044 55 277 0.0 2.6 0.00 0.01 0.00 70 983.1
20260904093545 55 277 1.7 2.6 0.00 0.01 0.00 70 983.1
20260904093043 55 23 0.9 1.7 0.00 0.01 0.00 70 983.0
20260904092641 56 23 0.9 1.7 0.00 0.01 0.00 70 982.9
20260904092040 56 23 0.9 1.7 0.00 0.01 0.00 70 982.8
20260904091539 56 23 0.9 1.7 0.00 0.01 0.00 70 982.7
20260904091039 57 23 0.0 1.7 0.00 0.01 0.00 70 982.7
20260904090536 57 23 0.0 0.0 0.00 0.01 0.00 70 982.6
20260904090048 57 23 0.0 0.0 0.00 0.01 0.00 70 982.7
20260904085536 57 23 0.0 0.0 0.00 0.01 0.00 70 982.6
20260904085035 57 23 0.0 0.0 0.00 0.01 0.00 70 982.6
20260904084536 57 23 0.0 0.0 0.00 0.01 0.00 69 982.6
20260904084033 58 23 0.0 0.9 0.00 0.01 0.00 69 982.5
20260904083536 58 23 0.0 0.9 0.00 0.01 0.00 70 982.4
20260904083105 58 23 0.0 0.9 0.00 0.01 0.00 70 982.4
20260904082535 58 23 0.0 1.7 0.00 0.01 0.00 70 982.4
20260904082033 58 23 0.0 1.7 0.00 0.01 0.00 70 982.5
20260904081534 58 23 0.0 0.9 0.00 0.01 0.00 69 982.5
20260904081031 58 23 0.0 0.9 0.00 0.01 0.00 69 982.5
20260904080532 58 23 0.0 0.0 0.00 0.01 0.00 70 982.5
20260904080031 58 23 0.0 0.0 0.00 0.01 0.00 70 982.4
20260904075531 58 23 0.0 0.0 0.00 0.01 0.00 69 982.5
20260904075032 58 23 0.0 0.9 0.00 0.01 0.00 69 982.4
20260904074532 58 23 0.0 0.9 0.00 0.01 0.00 69 982.3
20260904074028 59 23 0.0 0.0 0.00 0.01 0.00 69 982.4
20260904073527 59 23 0.0 0.0 0.00 0.01 0.00 69 982.4
20260904073026 59 23 0.0 0.9 0.00 0.01 0.00 69 982.3
20260904072526 60 23 0.0 0.9 0.00 0.01 0.00 69 982.3
20260904072030 60 23 0.0 0.0 0.00 0.01 0.00 69 982.3
20260904071526 60 23 0.0 0.9 0.00 0.01 0.00 69 982.4
20260904071024 60 23 0.0 0.9 0.00 0.01 0.00 69 982.3
20260904070524 60 23 0.0 0.9 0.00 0.01 0.00 69 982.3
20260904070044 60 23 0.0 0.9 0.00 0.01 0.00 69 982.3
20260904065523 60 23 0.0 0.9 0.00 0.01 0.00 69 982.3
20260904065026 60 23 0.0 0.9 0.00 0.01 0.00 69 982.3
20260904064524 60 23 0.0 1.7 0.00 0.01 0.00 69 982.2
20260904064022 60 23 0.0 0.9 0.00 0.01 0.00 68 982.2
20260904063529 60 25 0.0 0.0 0.00 0.01 0.00 68 982.2
20260904063027 60 25 0.0 0.0 0.00 0.01 0.00 68 982.3
20260904062520 60 25 0.0 0.0 0.00 0.01 0.00 68 982.3
20260904062020 61 25 0.0 0.0 0.00 0.01 0.00 68 982.3
20260904061525 61 25 0.0 0.0 0.00 0.01 0.00 68 982.2
20260904061018 61 25 0.0 0.0 0.00 0.01 0.00 68 982.3
20260904060521 61 25 0.0 0.0 0.00 0.01 0.00 67 982.4
20260904060018 61 25 0.0 0.0 0.00 0.01 0.00 67 982.5
20260904055517 61 25 0.0 0.0 0.00 0.01 0.00 67 982.5
20260904055016 61 25 0.0 0.0 0.00 0.01 0.00 67 982.4
20260904054516 62 25 0.0 0.0 0.00 0.01 0.00 67 982.3
20260904054016 62 25 0.0 0.9 0.00 0.01 0.00 67 982.3
20260904053514 62 25 0.0 0.9 0.00 0.01 0.00 67 982.5
20260904053033 62 25 0.0 1.7 0.00 0.01 0.00 67 982.5
20260904052513 62 44 0.0 1.7 0.00 0.01 0.00 66 982.2
20260904052013 62 42 0.0 1.7 0.00 0.01 0.00 66 982.2
20260904051522 63 40 0.0 1.7 0.00 0.01 0.00 66 982.2
20260904051010 63 40 0.0 1.7 0.00 0.01 0.00 66 982.1
20260904050512 63 40 0.0 0.9 0.00 0.01 0.00 66 982.3
20260904050009 63 40 0.0 0.9 0.00 0.01 0.00 66 982.5
20260904045509 63 40 0.0 0.9 0.00 0.01 0.01 66 982.2
20260904045009 63 40 0.0 0.9 0.00 0.01 0.01 66 982.0
20260904044509 63 40 0.0 2.6 0.00 0.01 0.01 66 981.9
20260904044009 64 40 0.0 2.6 0.00 0.01 0.01 65 981.7
20260904043508 64 46 0.0 2.6 0.00 0.01 0.01 65 981.7
20260904043008 64 47 0.0 2.6 0.00 0.01 0.01 65 981.8
20260904042510 64 47 0.0 3.5 0.00 0.01 0.01 65 981.7
20260904042008 64 67 0.0 3.5 0.00 0.01 0.01 65 981.7
20260904041507 64 42 0.0 3.5 0.00 0.01 0.01 65 981.8
20260904041007 64 62 0.0 2.6 0.00 0.01 0.01 65 981.7
20260904040507 64 32 0.0 0.9 0.00 0.01 0.01 65 981.8
20260904040007 64 32 0.0 2.6 0.00 0.01 0.01 64 981.7
20260904035506 64 26 0.0 2.6 0.00 0.01 0.01 64 981.7
20260904035007 65 29 0.0 2.6 0.00 0.01 0.01 64 981.9
20260904034507 65 23 0.9 2.6 0.00 0.01 0.01 64 982.0
20260904034006 65 355 0.0 1.7 0.00 0.01 0.01 64 981.9
20260904033506 65 355 0.0 1.7 0.00 0.01 0.01 64 982.0
20260904033007 65 355 0.0 0.9 0.00 0.01 0.01 64 982.0
20260904032508 65 355 0.0 0.9 0.00 0.01 0.01 64 981.9
20260904032007 65 355 0.0 0.9 0.00 0.01 0.01 64 981.9
20260904031506 65 355 0.0 0.9 0.00 0.01 0.01 64 981.8
20260904031005 65 355 0.0 0.9 0.00 0.01 0.01 64 981.8
20260904030505 65 355 0.0 0.9 0.00 0.01 0.01 64 981.8
20260904030005 65 355 0.0 0.9 0.00 0.01 0.01 64 981.8
20260904025505 65 355 0.0 0.9 0.00 0.01 0.01 64 981.7
20260904025005 65 355 0.0 0.9 0.00 0.01 0.01 64 981.8
20260904024505 65 355 0.0 0.9 0.00 0.01 0.01 64 981.7
20260904024005 65 355 0.0 1.7 0.00 0.01 0.01 64 981.6
20260904023505 65 355 0.0 1.7 0.00 0.01 0.01 64 981.5
20260904023004 65 340 0.0 1.7 0.00 0.01 0.01 64 981.5
20260904022505 65 340 0.0 1.7 0.00 0.01 0.01 64 981.7
20260904022005 65 342 0.0 1.7 0.00 0.01 0.01 64 981.5
20260904021503 65 342 0.0 0.9 0.00 0.01 0.01 64 981.2
20260904021009 65 342 0.0 0.9 0.00 0.01 0.01 64 981.2
20260904020503 65 342 0.0 0.9 0.00 0.01 0.01 64 981.2
20260904020004 65 342 0.0 0.9 0.00 0.01 0.01 64 981.1
20260904015504 65 342 0.0 0.9 0.00 0.01 0.01 63 981.0
20260904015003 65 342 0.0 1.7 0.00 0.01 0.01 63 981.0
20260904014503 66 342 0.0 1.7 0.00 0.01 0.01 63 980.8
20260904014005 66 342 0.9 2.6 0.00 0.01 0.01 63 980.8
20260904013502 66 342 0.9 2.6 0.00 0.01 0.01 63 980.7
20260904013005 66 342 0.9 2.6 0.00 0.01 0.01 62 980.6
20260904012503 66 338 0.0 3.5 0.00 0.01 0.01 62 980.6
20260904012003 66 338 0.9 3.5 0.00 0.01 0.01 62 980.4
20260904011502 67 5 0.0 2.6 0.00 0.01 0.01 62 980.3
20260904011003 67 46 0.0 2.6 0.00 0.01 0.01 62 980.2
20260904010502 67 48 0.0 2.6 0.00 0.01 0.01 62 980.3
20260904010002 67 74 0.0 2.6 0.00 0.01 0.01 62 980.3
20260904005501 67 30 0.0 2.6 0.00 0.01 0.01 62 980.3
20260904005002 67 34 0.9 2.6 0.00 0.01 0.01 62 980.4
20260904004501 67 24 0.0 2.6 0.00 0.01 0.01 63 980.3
20260904004001 67 37 0.0 2.6 0.00 0.01 0.01 63 980.5
20260904003501 67 22 0.9 3.5 0.00 0.01 0.01 63 980.6
20260904003001 67 5 0.0 3.5 0.00 0.01 0.01 63 980.6
20260904002502 67 9 0.9 3.5 0.00 0.01 0.01 63 980.7
20260904002002 67 294 0.9 4.3 0.00 0.01 0.01 62 980.9
20260904001607 68 288 1.7 5.2 0.00 0.01 0.01 62 980.6
20260904001100 68 300 0.9 3.5 0.00 0.01 0.01 62 980.6
20260904000601 68 307 1.7 2.6 0.00 0.01 0.01 62 980.6
20260904000109 68 298 0.0 2.6 0.00 0.01 0.01 61 980.6
20260903235600 68 291 0.0 1.7 0.00 0.01 0.01 61 980.6
20260903235100 68 291 0.0 0.9 0.00 0.01 0.01 61 980.6
20260903234600 68 291 0.0 1.7 0.00 0.01 0.01 61 980.5
20260903234103 68 292 0.0 2.6 0.00 0.01 0.01 61 980.4
20260903233601 69 292 0.9 2.6 0.00 0.01 0.01 61 980.3
20260903233103 69 292 0.9 2.6 0.00 0.01 0.01 61 980.1
20260903232559 69 360 0.0 1.7 0.00 0.01 0.01 61 979.7
20260903232059 69 360 0.0 2.6 0.00 0.01 0.01 61 979.6
20260903231559 69 360 0.0 2.6 0.00 0.01 0.01 61 979.7
20260903231058 69 360 0.0 2.6 0.00 0.01 0.01 61 979.7
20260903230558 69 360 0.0 2.6 0.00 0.01 0.01 61 979.6
20260903230059 69 360 0.0 2.6 0.00 0.01 0.01 60 979.5
20260903225558 69 229 0.9 1.7 0.00 0.01 0.01 60 979.6
20260903225102 69 229 0.0 0.9 0.00 0.01 0.01 59 979.7
20260903224558 69 229 0.0 0.9 0.00 0.01 0.01 59 979.8
20260903224102 69 229 0.0 1.7 0.00 0.01 0.01 59 979.7
20260903223600 69 229 0.0 1.7 0.00 0.01 0.01 59 979.8
20260903223059 69 229 0.0 2.6 0.00 0.01 0.01 59 979.7
20260903222557 69 229 0.9 3.5 0.00 0.01 0.01 59 979.7
20260903222101 69 227 1.7 3.5 0.00 0.01 0.01 59 979.6
20260903221557 69 223 1.7 3.5 0.00 0.01 0.01 58 979.6
20260903221056 69 45 0.0 1.7 0.00 0.01 0.01 58 979.6
20260903220559 69 38 0.9 5.2 0.00 0.01 0.01 58 979.3
20260903220058 69 19 0.9 8.7 0.00 0.01 0.01 59 978.7
20260903215556 69 33 3.5 9.6 0.00 0.01 0.01 59 978.0
20260903215056 69 55 3.5 9.6 0.00 0.01 0.01 59 977.7
20260903214609 69 57 3.5 8.7 0.00 0.01 0.01 59 977.3
20260903214058 69 88 0.9 11.3 0.00 0.01 0.01 60 977.2
20260903213555 69 175 1.7 11.3 0.00 0.01 0.01 60 977.0
20260903213056 69 80 1.7 7.8 0.00 0.01 0.01 60 977.1
20260903212558 69 96 1.7 7.8 0.00 0.01 0.01 60 976.9
20260903212059 69 68 2.6 11.3 0.00 0.01 0.01 60 976.9
20260903211606 69 78 4.3 10.4 0.00 0.01 0.01 60 977.0
20260903211055 69 87 2.6 9.6 0.00 0.01 0.01 60 977.0
20260903210555 69 91 3.5 9.6 0.00 0.01 0.01 60 976.9
20260903210056 69 82 3.5 12.2 0.00 0.01 0.01 61 976.8
20260903205553 68 131 5.2 12.2 0.00 0.01 0.01 61 976.9
20260903205053 68 64 3.5 12.2 0.00 0.01 0.01 61 977.0
20260903204559 68 89 5.2 12.2 0.00 0.01 0.01 61 977.1
20260903204052 68 123 3.5 10.4 0.01 0.01 0.01 61 977.4
20260903203552 68 113 3.5 9.6 0.01 0.01 0.01 62 977.7
20260903203051 68 133 3.5 9.6 0.01 0.01 0.01 62 977.8
20260903202551 68 140 2.6 9.6 0.01 0.01 0.01 62 977.7
20260903202051 68 84 5.2 11.3 0.01 0.01 0.01 62 977.5
20260903201559 68 98 5.2 11.3 0.01 0.01 0.01 62 977.3
20260903201052 69 94 6.1 8.7 0.01 0.01 0.01 63 977.7
20260903200547 69 93 4.3 9.6 0.01 0.01 0.01 62 978.4
20260903200056 69 95 3.5 9.6 0.01 0.01 0.01 63 979.1
20260903195544 69 114 0.9 6.1 0.01 0.01 0.01 63 979.4
20260903195044 69 99 0.9 5.2 0.01 0.01 0.01 62 979.4
20260903194544 69 91 0.9 7.0 0.01 0.01 0.01 62 979.6
20260903194042 69 100 1.7 7.0 0.00 0.00 0.00 62 979.9
20260903193541 69 94 0.0 2.6 0.00 0.00 0.00 62 980.1
20260903193040 69 115 0.9 3.5 0.00 0.00 0.00 62 980.5
20260903192539 70 98 0.9 5.2 0.00 0.00 0.00 61 980.7
20260903192039 70 96 0.9 5.2 0.00 0.00 0.00 60 980.8
20260903191537 70 134 1.7 5.2 0.00 0.00 0.00 59 980.9
20260903191037 70 134 0.9 5.2 0.00 0.00 0.00 58 980.9
20260903190536 70 82 0.9 5.2 0.00 0.00 0.00 58 980.9
20260903190036 69 130 0.0 1.7 0.00 0.00 0.00 58 981.1
20260903185536 69 130 0.0 1.7 0.00 0.00 0.00 59 981.0
20260903185038 69 121 0.0 1.7 0.00 0.00 0.00 59 981.1
20260903184535 69 97 0.0 1.7 0.00 0.00 0.00 59 981.1
20260903184040 69 97 0.0 1.7 0.00 0.00 0.00 58 981.2
20260903183534 69 96 0.0 1.7 0.00 0.00 0.00 58 981.3
20260903183035 69 96 0.0 1.7 0.00 0.00 0.00 58 981.3
20260903182538 69 138 0.0 0.9 0.00 0.00 0.00 58 981.2
20260903182034 69 138 0.0 0.0 0.00 0.00 0.00 58 981.2
20260903181533 69 138 0.0 0.9 0.00 0.00 0.00 58 981.4
20260903181032 70 138 0.0 1.7 0.00 0.00 0.00 57 981.6
20260903180538 70 138 0.0 1.7 0.00 0.00 0.00 57 981.6
20260903180039 70 138 0.0 2.6 0.00 0.00 0.00 57 981.8
20260903175530 70 138 0.0 2.6 0.00 0.00 0.00 56 981.8
20260903175030 70 142 0.0 3.5 0.00 0.00 0.00 56 982.0
20260903174530 70 123 0.0 5.2 0.00 0.00 0.00 56 982.1
20260903174030 70 126 0.9 5.2 0.00 0.00 0.00 56 982.2
20260903173529 70 139 0.0 4.3 0.00 0.00 0.00 56 982.4
20260903173029 70 84 1.7 4.3 0.00 0.00 0.00 55 982.4